Groton, South Dakota, United States (57445)
Lat: 45.45N, Lon: 98.1W
Wx Zone: SDZ006
Local Info
Past Weather Observations for Friday, May 22, 2015

NOTE: This archive is for the closest National Weather Service station to Groton. Information may differ from the station used for current weather conditions.

Click here for Long-term Archive

Time Weather Temperature Dewpoint Humidity Pressure Winds Precip Visibility
23:53
Mostly Cloudy
50°F / 10°C 43°F / 6°C 76% 30.18 in
(1022 mb)
S 6.9 mph
(S 11 kph)
- 10SM
22:53
Partly Cloudy
54°F / 12°C 45°F / 7°C 72% 30.18 in
(1022 mb)
SSE 9.2 mph
(SSE 15 kph)
- 10SM
21:53
Partly Cloudy
57°F / 14°C 45°F / 7°C 63% 30.15 in
(1021 mb)
SSE 13.8 mph
(SSE 22 kph)
- 10SM
20:53
Clear
61°F / 16°C 45°F / 7°C 55% 30.12 in
(1020 mb)
SW 10.4 mph
(SW 17 kph)
- 10SM
19:53
Partly Cloudy
66°F / 19°C 41°F / 5°C 40% 30.12 in
(1020 mb)
SW 12.7 mph
(SW 20 kph)
- 10SM
18:53
Overcast
73°F / 23°C 36°F / 2°C 25% 30.09 in
(1019 mb)
S 12.7 mph
(S 20 kph)
- 10SM
17:53
Overcast
73°F / 23°C 37°F / 3°C 27% 30.09 in
(1019 mb)
SSE 10.4 mph
(SSE 17 kph)
- 10SM
16:53
Overcast
75°F / 24°C 37°F / 3°C 25% 30.09 in
(1019 mb)
SSE 8.1 mph
(SSE 13 kph)
- 10SM
15:53
Partly Cloudy
73°F / 23°C 39°F / 4°C 29% 30.12 in
(1020 mb)
SE 8.1 mph
(SE 13 kph)
- 10SM
14:53
Mostly Cloudy
77°F / 25°C 36°F / 2°C 22% 30.12 in
(1020 mb)
Variable 3.5 mph
(Variable 6 kph)
- 10SM
13:53
Mostly Cloudy
77°F / 25°C 37°F / 3°C 24% 30.15 in
(1021 mb)
SSE 11.5 mph
(SSE 19 kph)
- 10SM
12:53
Mostly Cloudy
77°F / 25°C 36°F / 2°C 22% 30.15 in
(1021 mb)
Calm - 10SM
11:53
Clear
73°F / 23°C 37°F / 3°C 27% 30.18 in
(1022 mb)
Variable 6.9 mph
(Variable 11 kph)
- 10SM
10:53
Clear
73°F / 23°C 37°F / 3°C 27% 30.18 in
(1022 mb)
ESE 6.9 mph
(ESE 11 kph)
- 10SM
09:53
Clear
68°F / 20°C 41°F / 5°C 38% 30.18 in
(1022 mb)
SE 6.9 mph
(SE 11 kph)
- 10SM
08:53
Clear
64°F / 18°C 43°F / 6°C 46% 30.18 in
(1022 mb)
SE 6.9 mph
(SE 11 kph)
- 10SM
07:53
Clear
59°F / 15°C 41°F / 5°C 51% 30.18 in
(1022 mb)
SE 4.6 mph
(SE 7 kph)
- 10SM
06:53
Clear
54°F / 12°C 43°F / 6°C 67% 30.18 in
(1022 mb)
SE 3.5 mph
(SE 6 kph)
- 10SM
05:53
Clear
48°F / 9°C 39°F / 4°C 71% 30.18 in
(1022 mb)
E 3.5 mph
(E 6 kph)
- 10SM
04:53
Clear
45°F / 7°C 37°F / 3°C 76% 30.18 in
(1022 mb)
E 5.8 mph
(E 9 kph)
- 10SM
03:53
Clear
45°F / 7°C 39°F / 4°C 81% 30.18 in
(1022 mb)
NNE 3.5 mph
(NNE 6 kph)
- 10SM
02:53
Clear
48°F / 9°C 37°F / 3°C 66% 30.15 in
(1021 mb)
E 4.6 mph
(E 7 kph)
- 10SM
01:53
Clear
48°F / 9°C 37°F / 3°C 66% 30.15 in
(1021 mb)
ESE 8.1 mph
(ESE 13 kph)
- 10SM
00:53
Clear
48°F / 9°C 39°F / 4°C 71% 30.15 in
(1021 mb)
E 4.6 mph
(E 7 kph)
- 10SM
Time Weather Temperature Dewpoint Humidity Pressure Winds Precip Visibility


Weather for websites

WeatherForYou.com, LLC is not responsible for any damages or problems caused by this service. Current weather conditions are obtained from the closest station including government and personal stations which may have varying degrees of accuracy. Weather forecasts are derived from the NOAA NDFD. Like all things, this site belongs to Jesus Christ... He just trusts us to maintain it. If you have any questions or comments email webmaster@weatherforyou.com

Copyright © 2015, WeatherForYou.com LLC. All rights reserved.